Location: Unspecified
(0.0000°N, 0.0000°E)
Time: 11:22:08
(UTC+00:00)

Vanguard 1 Rocket - Pass Details

Date: 23 November 2019
Orbit: 650 x 4226 km, 34.3° (Epoch: 14 December)

Event Time Altitude Azimuth Distance (km) Brightness Sun altitude
Rises 21:54:09 0° 236° (SW) 7,600 12.6 -55.8°
Reaches altitude 10° 22:00:02 10° 237° (WSW) 6,078 11.9 -56.9°
Enters shadow 22:10:30 40° 244° (WSW) 3,166 10.1 -58.9°
Maximum altitude 22:16:38 76° 320° (NW) 1,900 - -60.0°
Drops below altitude 10° 22:24:43 10° 46° (NE) 3,169 - -61.4°
Sets 22:26:51 0° 48° (NE) 3,867 - -61.8°
